Location: Cornospital
(48.0620°N, 3.3837°W)
Time: 21:01:11
(UTC+00:00)

Cosmos 2016 Rocket - Pass Details

Date: 17 June 2021
Orbit: 947 x 1000 km, 83.0° (Epoch: 02 August)

Event Time Altitude Azimuth Distance (km) Brightness Sun altitude
Rises 22:27:28 0° 347° (NNW) 3,631 8.7 -14.6°
Reaches altitude 10° 22:30:00 10° 344° (NNW) 2,680 7.7 -14.8°
Maximum altitude 22:35:57 56° 268° (W) 1,125 4.4 -15.2°
Enters shadow 22:40:53 15° 194° (SSW) 2,315 5.5 -15.5°
